Location: Esp�n
(42.4593°N, 0.2047°W)
Time: 07:52:24
(UTC+00:00)

STARLINK-70 - Pass Details

Date: 06 October 2020
Orbit: 441 x 442 km, 53.0° (Epoch: 21 October)

Event Time Altitude Azimuth Distance (km) Brightness Sun altitude
Exits shadow 04:25:56 29° 188° (S) 831 4.3 -18.8°
Maximum altitude 04:27:13 43° 137° (SE) 629 4.1 -18.6°
Drops below altitude 10° 04:30:33 10° 65° (ENE) 1,559 7.1 -18.0°
Sets 04:32:44 0° 58° (ENE) 2,432 8.2 -17.6°
